Miscellaneous Local Product
Issued by NWS Hastings, NE

Home | Current Version | Previous Version | Text Only | Print | Product List | Glossary Off
Versions: 1 2 3 4 5 6 7 8 9 10 11 12 13 14 15 16 17 18 19 20 21 22 23 24 25 26 27 28 29 30 31 32 33 34 35 36 37 38 39 40 41 42 43 44 45 46 47 48 49 50

364
AXUS43 KGID 132202
MISGRI

GID CWA HOURLY WEATHER ROUNDUP
NATIONAL WEATHER SERVICE HASTINGS NE
400 PM CST WED DEC 13 2017

NOTE: "FAIR" INDICATES FEW OR NO CLOUDS BELOW 12,000 FEET WITH NO
SIGNIFICANT WEATHER AND/OR OBSTRUCTIONS TO VISIBILITY.

...SOUTH CENTRAL NEBRASKA...

CITY           SKY/WX    TMP DP  RH WIND       PRES   REMARKS
GRAND ISLAND   CLEAR     50  27  40 NW22G31   29.89R
KEARNEY        CLEAR     50  24  36 N20G28    29.92R
HASTINGS       CLEAR     50  24  36 NW20      29.90R
ORD            CLEAR     49  27  42 NW22G32   29.89S
YORK           CLEAR     50  27  40 NW13G24   29.86S
AURORA         CLEAR     50  26  39 NW25G31   29.88R
LEXINGTON      SUNNY     51  23  33 N22G28    29.94R
HOLDREGE       SUNNY     50  25  37 NW17G26   29.92F
HEBRON         CLEAR     53  25  33 NW13      29.88R

...NEBRASKA PANHANDLE...

CITY           SKY/WX    TMP DP  RH WIND       PRES   REMARKS
CHADRON        PTSUNNY   45  19  35 NW20G26   30.02R
ALLIANCE       SUNNY     47  16  29 N24G33    29.99R
SCOTTSBLUFF    SUNNY     51  14  22 N18G28    30.02S
SIDNEY         SUNNY     48  14  25 NW21G32   30.02R

...WESTERN AND NORTH CENTRAL NEBRASKA...

CITY           SKY/WX    TMP DP  RH WIND       PRES   REMARKS
VALENTINE      CLEAR     48  23  37 NW26G38   29.94R
AINSWORTH      CLEAR     46  28  49 NW28G35   29.92S
ONEILL         CLEAR     46  28  50 NW23G31   29.89R
BROKEN BOW     PTCLDY    48  25  40 NW17G24   29.92R
IMPERIAL       MOSUNNY   52  16  24 N22       29.98R
NORTH PLATTE   MOSUNNY   50  22  33 NW20G26   29.97R
MCCOOK         SUNNY     53  15  22 N28G37    29.94F

...EASTERN NEBRASKA...

CITY           SKY/WX    TMP DP  RH WIND       PRES   REMARKS
NORFOLK        PTCLDY    45  29  53 NW24G35   29.83R
SO SIOUX CITY  CLOUDY    40  29  64 NW25G35   29.83R WCI  29
TEKAMAH        CLOUDY    43  28  55 NW24G35   29.86R
COLUMBUS       CLEAR     49  28  44 NW22      29.86R
ALBION         CLEAR     49  29  46 NW22G28   29.87R
OMAHA EPPLEY   PTCLDY    47  29  49 N23G33    29.83R
OFFUTT AFB     PTCLDY    48  29  48 NW21G30   29.82R
MILLARD        CLEAR     49  32  51 N14G26    29.84R
LINCOLN        CLEAR     51  27  39 N24G31    29.85S
NEBRASKA CITY  CLEAR     50  30  46 NW22      29.81S
BEATRICE       CLEAR     53  29  39 NW22G28   29.85R
FALLS CITY     CLEAR     53  27  36 NW21G31   29.80R

...NORTHERN KANSAS...

CITY           SKY/WX    TMP DP  RH WIND       PRES   REMARKS
GOODLAND       SUNNY     54  14  20 N21G30    29.96S
HILL CITY      SUNNY     56  16  20 N15       29.94R
NORTON         CLEAR     54   1  12 NW20G25   29.93R
PHILLIPSBURG   SUNNY     55  18  22 NW20      29.92R
SMITH CENTER   SUNNY     54  19  26 NW17G29   29.90S
HAYS           SUNNY     57  15  19 N23       29.92R
RUSSELL        SUNNY     57  22  25 NW20      29.90R
CONCORDIA      CLEAR     55  23  28 NW21G30   29.87R
SALINA         SUNNY     60  25  26 N16       29.88S
TOPEKA         CLEAR     57  27  31 NW17G25   29.82R



USA.gov is the U.S. government's official web portal to all federal, state and local government web resources and services.